Powrót do katalogu

CZ-6A DEB

AktywnyPO
NORAD 61077·DEBRIS·🇨🇳 China

Wystrzelony Aug 6, 2024 z Taiyuan Satellite Launch Center

Loading…

Następne Przeloty (najbliższe 24 godziny)

TLE

ŚwieżeSource: Space-Track

Epoka: Sep 14, 2026, 07:46 UTC

1 61077U 24140MT  26257.32424439  .00002369  00000-0  57380-3 0  9991
2 61077  88.6002 222.5268 0070515 301.6465  57.7876 14.51199237108413

Śledź CZ-6A DEB w czasie rzeczywistym z AllMySat

Download on the App Store